Location: Azul
(36.7830°S, 59.8500°W)
Time: 18:19:24
(UTC-03:00)

BEESAT - Pass Details

Date: 28 October 2021
Orbit: 700 x 707 km, 98.6° (Epoch: 06 December)

Event Time Altitude Azimuth Distance (km) Brightness Sun altitude
Rises 20:07:14 0° 4° (N) 3,089 ? -8.1°
Reaches altitude 10° 20:09:30 10° 360° (N) 2,179 ? -8.5°
Maximum altitude 20:14:12 57° 281° (W) 845 ? -9.3°
Drops below altitude 10° 20:18:58 10° 202° (SSW) 2,211 ? -10.2°
Sets 20:21:18 0° 197° (SSW) 3,138 ? -10.6°
